This is the latest recevied weather packets stored in our database for station/object KC4GS-13. If no packets are shown the sender has not sent any weather packets the latest 10 day(s).
| Time | Temp. | Humidity | Pressure | Rain* | Wind** | Luminosity | Snow |
|---|---|---|---|---|---|---|---|
| 1777758735 | 18.89° C | 75% | 1012.6 hPa | 0 mm | - | 376 W/m² | - |
| 1777758432 | 18.89° C | 77% | 1012.4 hPa | 0 mm | - | 272 W/m² | - |
| 1777758124 | 18.89° C | 77% | 1012.6 hPa | 0 mm | - | 123 W/m² | - |
| 1777757821 | 19.44° C | 76% | 1012.7 hPa | 0 mm | - | 208 W/m² | - |
| 1777757518 | 19.44° C | 76% | 1012.5 hPa | 0 mm | - | 182 W/m² | - |
| 1777757217 | 18.89° C | 79% | 1012.6 hPa | 0 mm | - | 356 W/m² | - |
| 1777756915 | 17.78° C | 79% | 1012.6 hPa | 0 mm | - | 463 W/m² | - |
| 1777756610 | 18.33° C | 78% | 1012.3 hPa | 0 mm | - | 107 W/m² | - |
| 1777756308 | 18.33° C | 78% | 1012.5 hPa | 0 mm | - | 374 W/m² | - |
| 1777756005 | 17.78° C | 81% | 1012.3 hPa | 0 mm | - | 337 W/m² | - |
| 1777755702 | 17.22° C | 80% | 1012.5 hPa | 0 mm | - | 135 W/m² | - |
| 1777755399 | 17.78° C | 79% | 1012.6 hPa | 0 mm | - | 84 W/m² | - |
| 1777755095 | 17.78° C | 78% | 1012.5 hPa | 0 mm | - | 115 W/m² | - |
| 1777754792 | 18.89° C | 77% | 1012.5 hPa | 0 mm | - | 149 W/m² | - |
| 1777754490 | 18.89° C | 77% | 1012.7 hPa | 0 mm | - | 541 W/m² | - |
| 1777754187 | 18.89° C | 76% | 1012.7 hPa | 0 mm | - | 578 W/m² | - |
| 1777753885 | 18.89° C | 77% | 1012.6 hPa | 0 mm | - | 578 W/m² | - |
| 1777753579 | 19.44° C | 76% | 1012.4 hPa | 0 mm | - | 545 W/m² | - |
| 1777753278 | 18.89° C | 77% | 1012.5 hPa | 0 mm | - | 638 W/m² | - |
| 1777752974 | 18.89° C | 78% | 1012.5 hPa | 0 mm | - | 659 W/m² | - |
| 1777752671 | 18.33° C | 78% | 1012.5 hPa | 0 mm | - | 602 W/m² | - |
| 1777752366 | 18.89° C | 79% | 1012.8 hPa | 0 mm | - | 601 W/m² | - |
| 1777752063 | 18.33° C | 79% | 1012.7 hPa | 0 mm | - | 622 W/m² | - |
| 1777751761 | 17.78° C | 81% | 1012.9 hPa | 0 mm | - | 655 W/m² | - |
| 1777751457 | 17.78° C | 81% | 1012.5 hPa | 0 mm | - | 551 W/m² | - |
* Rain latest hour (hover to see other rain measurements)
** Current wind speed in m/s (hover to see current wind gust speed)